When you browse on this site, cookies collect data to enhance your experience and personalize the content and advertising you see.
Visit our Privacy Policy to learn more. By continuing to use the site, you agree to this use of cookies and data.
  • In Österreich
  • Länderverzeichnis
  • Für 7 Tage
  • Wassertemperatur
  • Satellitenkarten
  • Wetterkarte
  • News
  • Widgets
  • user-avatar
    Anmelden

    Stündliche Wetter Santa Fe

    Heute, 25 Juni, Dienstag

    Zeit Temperatur Niederschläge Wind Luftdruck Luftfeuchtigkeit
    00:00 +19°C° 0.4 mm 6 m/S 750 mmHg 87%
    01:00 +17°C° 0.4 mm 7 m/S 751 mmHg 84%
    02:00 +16°C° 0.4 mm 9 m/S 752 mmHg 80%
    03:00 +13°C° 0.1 mm 9 m/S 753 mmHg 72%
    04:00 +12°C° 0.1 mm 9 m/S 754 mmHg 64%
    05:00 +10°C° 0.1 mm 8 m/S 756 mmHg 56%
    06:00 +10°C° 0 mm 8 m/S 757 mmHg 55%
    07:00 +9°C° 0 mm 7 m/S 758 mmHg 54%
    08:00 +8°C° 0 mm 7 m/S 759 mmHg 53%
    09:00 +9°C° 0 mm 7 m/S 760 mmHg 49%
    10:00 +10°C° 0 mm 7 m/S 761 mmHg 45%
    11:00 +10°C° 0 mm 8 m/S 761 mmHg 41%
    12:00 +11°C° 0 mm 7 m/S 761 mmHg 40%
    13:00 +11°C° 0 mm 7 m/S 761 mmHg 39%
    14:00 +11°C° 0 mm 6 m/S 761 mmHg 37%
    15:00 +12°C° 0 mm 5 m/S 761 mmHg 41%
    16:00 +11°C° 0 mm 4 m/S 761 mmHg 45%
    17:00 +10°C° 0 mm 3 m/S 761 mmHg 49%
    18:00 +9°C° 0 mm 3 m/S 762 mmHg 49%
    19:00 +9°C° 0 mm 3 m/S 762 mmHg 49%
    20:00 +8°C° 0 mm 3 m/S 763 mmHg 50%
    21:00 +8°C° 0 mm 2 m/S 763 mmHg 50%
    22:00 +7°C° 0 mm 2 m/S 763 mmHg 50%
    23:00 +7°C° 0 mm 2 m/S 763 mmHg 50%

    Morgen, 26 Juni, Mittwoch

    Zeit Temperatur Niederschläge Wind Luftdruck Luftfeuchtigkeit
    00:00 +7°C° 0 mm 2 m/S 762 mmHg 51%
    01:00 +6°C° 0 mm 2 m/S 762 mmHg 51%
    02:00 +6°C° 0 mm 2 m/S 761 mmHg 51%
    03:00 +6°C° 0 mm 2 m/S 761 mmHg 51%
    04:00 +7°C° 0 mm 1 m/S 761 mmHg 51%
    05:00 +6°C° 0 mm 1 m/S 760 mmHg 51%
    06:00 +7°C° 0 mm 1 m/S 761 mmHg 52%
    07:00 +7°C° 0 mm 1 m/S 761 mmHg 53%
    08:00 +8°C° 0 mm 1 m/S 761 mmHg 54%
    09:00 +8°C° 0 mm 2 m/S 761 mmHg 52%
    10:00 +9°C° 0 mm 3 m/S 761 mmHg 50%
    11:00 +11°C° 0 mm 4 m/S 761 mmHg 49%
    12:00 +12°C° 0 mm 4 m/S 760 mmHg 47%
    13:00 +12°C° 0 mm 4 m/S 760 mmHg 46%
    14:00 +13°C° 0 mm 4 m/S 759 mmHg 45%
    15:00 +12°C° 0 mm 4 m/S 759 mmHg 50%
    16:00 +11°C° 0 mm 3 m/S 759 mmHg 56%
    17:00 +10°C° 0 mm 3 m/S 758 mmHg 61%
    18:00 +9°C° 0 mm 3 m/S 758 mmHg 62%
    19:00 +8°C° 0 mm 3 m/S 759 mmHg 64%
    20:00 +8°C° 0 mm 3 m/S 759 mmHg 65%
    21:00 +7°C° 0 mm 3 m/S 759 mmHg 67%
    22:00 +7°C° 0 mm 3 m/S 759 mmHg 68%
    23:00 +7°C° 0 mm 3 m/S 759 mmHg 70%

    übermorgen, 27 Juni, Donnerstag

    Zeit Temperatur Niederschläge Wind Luftdruck Luftfeuchtigkeit
    00:00 +7°C° 0 mm 3 m/S 758 mmHg 70%
    01:00 +5°C° 0 mm 4 m/S 758 mmHg 71%
    02:00 +5°C° 0 mm 4 m/S 758 mmHg 72%
    03:00 +5°C° 0 mm 4 m/S 758 mmHg 73%
    04:00 +5°C° 0 mm 4 m/S 757 mmHg 73%
    05:00 +5°C° 0 mm 4 m/S 757 mmHg 74%
    06:00 +5°C° 0 mm 4 m/S 757 mmHg 74%
    07:00 +5°C° 0 mm 5 m/S 757 mmHg 73%
    08:00 +6°C° 0 mm 5 m/S 758 mmHg 73%
    09:00 +7°C° 0 mm 5 m/S 757 mmHg 68%
    10:00 +9°C° 0 mm 5 m/S 757 mmHg 63%
    11:00 +12°C° 0 mm 5 m/S 757 mmHg 58%
    12:00 +13°C° 0 mm 5 m/S 756 mmHg 57%
    13:00 +14°C° 0 mm 4 m/S 756 mmHg 56%
    14:00 +15°C° 0 mm 4 m/S 755 mmHg 54%
    15:00 +14°C° 0 mm 4 m/S 755 mmHg 60%
    16:00 +13°C° 0 mm 3 m/S 754 mmHg 65%
    17:00 +12°C° 0 mm 3 m/S 754 mmHg 70%
    18:00 +12°C° 0 mm 3 m/S 754 mmHg 76%
    19:00 +11°C° 0 mm 3 m/S 754 mmHg 81%
    20:00 +11°C° 0 mm 3 m/S 754 mmHg 86%
    21:00 +11°C° 0 mm 3 m/S 754 mmHg 89%
    22:00 +11°C° 0 mm 3 m/S 754 mmHg 92%
    23:00 +12°C° 0 mm 2 m/S 754 mmHg 95%

    28 Juni, Freitag

    Zeit Temperatur Niederschläge Wind Luftdruck Luftfeuchtigkeit
    00:00 +12°C° 0 mm 3 m/S 753 mmHg 95%
    01:00 +13°C° 0 mm 3 m/S 753 mmHg 95%
    02:00 +14°C° 0 mm 3 m/S 753 mmHg 95%
    03:00 +14°C° 0 mm 3 m/S 752 mmHg 96%
    04:00 +14°C° 0 mm 3 m/S 752 mmHg 96%
    05:00 +15°C° 0 mm 2 m/S 751 mmHg 97%
    06:00 +16°C° 0.1 mm 2 m/S 751 mmHg 97%
    07:00 +16°C° 0.1 mm 2 m/S 751 mmHg 98%
    08:00 +16°C° 0.1 mm 2 m/S 751 mmHg 98%
    09:00 +17°C° 0.2 mm 2 m/S 751 mmHg 98%
    10:00 +18°C° 0.2 mm 1 m/S 751 mmHg 97%
    11:00 +18°C° 0.2 mm 1 m/S 751 mmHg 97%
    12:00 +19°C° 0.3 mm 1 m/S 751 mmHg 96%
    13:00 +19°C° 0.3 mm 1 m/S 750 mmHg 95%
    14:00 +20°C° 0.3 mm 1 m/S 749 mmHg 94%
    15:00 +19°C° 0 mm 1 m/S 749 mmHg 95%
    16:00 +19°C° 0 mm 1 m/S 749 mmHg 95%
    17:00 +19°C° 0 mm 1 m/S 750 mmHg 96%
    18:00 +18°C° 0 mm 2 m/S 750 mmHg 96%
    19:00 +18°C° 0 mm 2 m/S 750 mmHg 96%
    20:00 +18°C° 0 mm 2 m/S 751 mmHg 96%
    21:00 +18°C° 0 mm 2 m/S 751 mmHg 96%
    22:00 +18°C° 0 mm 3 m/S 751 mmHg 96%
    23:00 +17°C° 0 mm 3 m/S 751 mmHg 96%

    29 Juni, Samstag

    Zeit Temperatur Niederschläge Wind Luftdruck Luftfeuchtigkeit
    00:00 +17°C° 0 mm 3 m/S 751 mmHg 96%
    01:00 +17°C° 0 mm 3 m/S 751 mmHg 96%
    02:00 +17°C° 0 mm 3 m/S 751 mmHg 95%
    03:00 +17°C° 0 mm 3 m/S 751 mmHg 95%
    04:00 +16°C° 0 mm 3 m/S 751 mmHg 95%
    05:00 +16°C° 0 mm 3 m/S 752 mmHg 94%
    06:00 +15°C° 0 mm 4 m/S 752 mmHg 94%
    07:00 +15°C° 0 mm 4 m/S 753 mmHg 93%
    08:00 +15°C° 0 mm 4 m/S 753 mmHg 93%
    09:00 +17°C° 0 mm 4 m/S 753 mmHg 88%
    10:00 +17°C° 0 mm 4 m/S 754 mmHg 84%
    11:00 +17°C° 0 mm 5 m/S 754 mmHg 79%
    12:00 +19°C° 0 mm 5 m/S 754 mmHg 76%
    13:00 +19°C° 0 mm 5 m/S 754 mmHg 73%
    14:00 +20°C° 0 mm 5 m/S 754 mmHg 70%
    15:00 +19°C° 0 mm 5 m/S 755 mmHg 71%
    16:00 +18°C° 0 mm 4 m/S 755 mmHg 72%
    17:00 +17°C° 0 mm 4 m/S 756 mmHg 73%
    18:00 +15°C° 0 mm 4 m/S 756 mmHg 76%
    19:00 +14°C° 0 mm 4 m/S 757 mmHg 79%
    20:00 +13°C° 0 mm 4 m/S 757 mmHg 82%
    21:00 +13°C° 0 mm 4 m/S 758 mmHg 84%
    22:00 +13°C° 0 mm 3 m/S 758 mmHg 85%
    23:00 +12°C° 0 mm 3 m/S 759 mmHg 86%

    30 Juni, Sonntag

    Zeit Temperatur Niederschläge Wind Luftdruck Luftfeuchtigkeit
    00:00 +12°C° 0 mm 3 m/S 759 mmHg 88%
    01:00 +11°C° 0 mm 3 m/S 759 mmHg 89%
    02:00 +10°C° 0 mm 3 m/S 759 mmHg 90%
    03:00 +10°C° 0 mm 3 m/S 759 mmHg 91%
    04:00 +10°C° 0 mm 4 m/S 760 mmHg 91%
    05:00 +8°C° 0 mm 4 m/S 760 mmHg 92%
    06:00 +8°C° 0 mm 4 m/S 760 mmHg 90%
    07:00 +8°C° 0 mm 4 m/S 760 mmHg 89%
    08:00 +8°C° 0 mm 4 m/S 761 mmHg 87%
    09:00 +11°C° 0 mm 4 m/S 761 mmHg 79%
    10:00 +12°C° 0 mm 3 m/S 761 mmHg 71%
    11:00 +14°C° 0 mm 3 m/S 761 mmHg 63%
    12:00 +14°C° 0 mm 3 m/S 761 mmHg 59%
    13:00 +16°C° 0 mm 3 m/S 760 mmHg 55%
    14:00 +17°C° 0 mm 3 m/S 760 mmHg 51%
    15:00 +16°C° 0 mm 3 m/S 760 mmHg 56%
    16:00 +15°C° 0 mm 2 m/S 760 mmHg 60%
    17:00 +13°C° 0 mm 2 m/S 759 mmHg 64%
    18:00 +13°C° 0 mm 2 m/S 759 mmHg 67%
    19:00 +12°C° 0 mm 2 m/S 759 mmHg 70%
    20:00 +10°C° 0 mm 2 m/S 760 mmHg 74%
    21:00 +9°C° 0 mm 3 m/S 760 mmHg 76%
    22:00 +9°C° 0 mm 3 m/S 760 mmHg 78%
    23:00 +8°C° 0 mm 3 m/S 760 mmHg 80%
    Mehr zeigen